Погода в Баде

Россия / Забайкальский край     51°23′19″N   109°51′47″E
темп.,
°C
ветер,
м/с
пор.,
м/с
влажн.,
%
обл.,
%
осадки,
мм/ч
давл.,
гПа
погр.,
м
22 мая, вс
вс2200:00+11з4883100 0.1 1009742
03:00+9з51089100 0.8 1010780
06:00+5зюз269729 0.0 1012222
09:00+11з596428 0.0 1011806
12:00+17зсз61140100 0.0 10092071
15:00+18зсз71236100 0.0 10062436
18:00+21сз7122857 0.0 10042991
21:00+16зсз37425 0.0 1006232
23 мая, пн
пн2300:00+11зюз115890 0.0 100512
03:00+11ссз016495 0.1 100410
06:00+8ссз1180100 0.1 100521
09:00+14зсз5115649 0.2 10051659
12:00+16зсз7122972 0.0 10062321
15:00+16сз813221 0.0 10072581
18:00+16ссз610275 0.0 10082399
21:00+11с38415 0.0 1012434
24 мая, вт
вт2400:00+6ссз22655 0.0 101735
03:00+4ссз227513 0.0 102022
06:00+5ссз1177100 0.0 102223
09:00+11ссз23506 0.0 1023915
12:00+16ссв34305 0.0 10222285
15:00+19с342379 0.0 10213004
18:00+19ссз33213 0.0 10202711
21:00+14юз11340 0.0 102111
25 мая, ср
ср2500:00+10зсз22450 0.0 102413
03:00+8зюз11550 0.0 102410
06:00+6юз11580 0.0 102511
09:00+15зюз24310 0.0 1023611
12:00+20зсз45190 0.0 10201961
15:00+23зсз45141 0.0 10172504
18:00+24зсз45142 0.0 10142881
21:00+17зсз22280 0.0 101411
26 мая, чт
чт2600:00+12юз11375 0.0 101512
03:00+10ююз2242100 0.0 101418
06:00+9ююз2244100 0.0 101226
09:00+16ююз2531100 0.0 1009279
12:00+22зюз462097 0.0 10061387
15:00+26з461735 0.0 10023298
18:00+24зюз5619100 0.0 10003196
21:00+19сз4939100 0.0 1001423